Content
SEND FEEDBACK

Daily
Averages
Monthly
Summary
United States of America

DINSMORE, FLORIDA


Home > North America > United States > Florida
Elevation: 30 feet     Latitude: 30 24N     Longitude: 081 42W

WEATHER
 
SELECT A DAY
Number of Records: 198,522;   Date Range: 1/1/95 - 8/30/14
 
SHARE

PRINT THIS DATA

[ ← Previous Day ]
WEATHER ALMANAC - JANUARY 31, 2013
[ Next Day → ]
[ °C ]   °F
Weather ElementAverageHighLow
Temperature49.9 °F59 °F (3:56 pm)37 °F (11:56 pm)
Dewpoint33.3 °F50 °F (1:56 am)23 °F (4:56 pm)
Humidity56.7 %86 % (1:56 am)27 % (3:56 pm)
Barometer30.12 in30.27 in (11:56 pm)29.93 in (1:56 am)
Wind Speed10.1 mph21.9 mph (1:56 pm)
Wind Gust27.6 mph (1:56 pm)
Weather ElementAverage
Visibility10 mi
Wind DirectionWSW (241.7 °)

Weather ElementTotal
Precipitation0.01 in
Heating Degree Days17 (Base 65)
Averaged from 23 records on January 31, 2013
WEATHER CONDITIONS BREAKOUT
WIND DIRECTION BREAKOUT
WEATHER BY HOUR - JANUARY 31, 2013
[ °C ]   °F
Local TimeTemperatureDewpointHumidityBarometerVisibilityWind DirectionWind SpeedGust SpeedPrecipitationEventsConditions
1:56 AM54.0 °F50.0 °F86 %29.93 in10.0 miWSW (250°)11.5 mph16.1 mph0.01 inMostly Cloudy
2:56 AM54.0 °F48.9 °F83 %29.94 in10.0 miWest (260°)9.2 mphScattered Clouds
3:56 AM52.0 °F46.9 °F83 %29.96 in10.0 miWSW (250°)8.1 mphMostly Cloudy
4:56 AM52.0 °F46.0 °F80 %29.98 in10.0 miWest (270°)12.7 mph19.6 mphScattered Clouds
5:56 AM50.0 °F39.9 °F68 %30.02 in10.0 miWNW (290°)16.1 mph26.5 mphScattered Clouds
6:56 AM46.9 °F37.0 °F68 %30.06 in10.0 miWNW (290°)9.2 mphPartly Cloudy
7:56 AM46.0 °F36.0 °F68 %30.10 in10.0 miWNW (290°)6.9 mphClear
8:56 AM48.0 °F30.9 °F52 %30.14 in10.0 miNW (310°)16.1 mph25.3 mphClear
9:56 AM50.0 °F33.1 °F52 %30.15 in10.0 miWNW (290°)15.0 mph21.9 mphClear
10:56 AM52.0 °F30.9 °F45 %30.16 in10.0 miWest (280°)16.1 mph19.6 mphClear
11:56 AM54.0 °F28.9 °F38 %30.15 in10.0 miWest (280°)12.7 mph21.9 mphPartly Cloudy
12:56 PM55.9 °F27.0 °F33 %30.14 in10.0 miWNW (290°)11.5 mph20.7 mphPartly Cloudy
1:56 PM57.9 °F26.1 °F30 %30.13 in10.0 miWest (270°)21.9 mph27.6 mphClear
2:56 PM57.9 °F26.1 °F30 %30.13 in10.0 miWest (280°)17.3 mph24.2 mphClear
3:56 PM59.0 °F25.0 °F27 %30.13 in10.0 miWest (270°)10.4 mph18.4 mphClear
4:56 PM57.0 °F23.0 °F27 %30.14 in10.0 miWNW (290°)15.0 mphClear
5:56 PM53.1 °F26.1 °F35 %30.16 in10.0 miWNW (290°)9.2 mphClear
6:56 PM48.9 °F27.0 °F43 %30.19 in10.0 miWest (280°)4.6 mphPartly Cloudy
7:56 PM43.0 °F32.0 °F65 %30.20 in10.0 miCalmClear
8:56 PM42.1 °F32.0 °F67 %30.23 in10.0 miCalmClear
9:56 PM39.0 °F30.9 °F73 %30.25 in10.0 miWSW (250°)3.5 mphPartly Cloudy
10:56 PM39.0 °F30.9 °F73 %30.26 in10.0 miCalmScattered Clouds
11:56 PM37.0 °F30.9 °F79 %30.27 in10.0 miWest (280°)5.8 mphScattered Clouds
Hourly data recorded from KJAX, located miles away from Dinsmore, Florida







STORIES FROM OUR PARTNERS